Weather History for Majunga, Madagascar

Change the Weather History Date:

Wednesday, February 6, 2013

  Actual Average Record
Temperature  
Mean Temperature 84 °F -  
Max Temperature 91 °F 88 °F - ()
Min Temperature 78 °F 75 °F - ()
Cooling Degree Days 20    
Growing Degree Days 34 (Base 50)    
Moisture  
Dew Point 78 °F    
Average Humidity 81    
Maximum Humidity 94    
Minimum Humidity 63    
Precipitation  
Precipitation 0.00 in 0.46 in - ()
Sea Level Pressure  
Sea Level Pressure 29.88 in    
Wind  
Wind Speed 6 mph ()    
Max Wind Speed 14 mph    
Max Gust Speed -    
Visibility 6.9 miles    
Events Rain    
T = Trace of Precipitation, MM = Missing Value Source: Averaged Metar Reports

Daily Weather History Graph

Daily Weather History Graph

Search for Another Location

Airport:

Trip Planner

Search our weather history database for the weather conditions in past years. The results will help you decide how hot, cold, wet, or windy it might be!

Date:

Astronomy

Feb. 06, 2013 Rise Set
Actual Time 5:47 AM EAT 6:30 PM EAT
Civil Twilight 5:24 AM EAT 6:52 PM EAT
Nautical Twilight 4:58 AM EAT 7:18 PM EAT
Astronomical Twilight 4:31 AM EAT 7:45 PM EAT
Moon 1:36 AM EAT (2/6) 2:55 PM EAT (2/6)
Length of Visible Light 13h 27m
Length of Day
12h 42m
Waning Crescent, 20% of the Moon is Illuminated
Feb 6
Waning Crescent
Feb 10
New
Feb 17
First Quarter
Feb 25
Full
Mar 5
Last Quarter

Hourly Weather History & Observations

Time (EAT) Temp. Heat Index Dew Point Humidity Pressure Visibility Wind Dir Wind Speed Gust Speed Precip Events Conditions
12:00 AM 82.4 °F 92.4 °F 78.8 °F 89% 29.89 in 6.2 mi West 4.6 mph - N/A   Scattered Clouds
1:00 AM 80.6 °F 88.1 °F 78.8 °F 94% 29.89 in 6.2 mi West 4.6 mph - N/A   Scattered Clouds
2:00 AM 78.8 °F - 75.2 °F 89% 29.89 in 6.2 mi West 4.6 mph - N/A   Scattered Clouds
3:00 AM 80 °F - 78 °F 91% 29.88 in 12 mi SSW 4.6 mph - - Rain Light Rain
3:00 AM 80.6 °F 87.1 °F 77.0 °F 89% 29.86 in 6.2 mi SSW 4.6 mph - N/A   Scattered Clouds
4:00 AM 80.6 °F 87.1 °F 77.0 °F 89% 29.86 in 6.2 mi SSW 4.6 mph - N/A   Scattered Clouds
5:00 AM 80.6 °F 87.1 °F 77.0 °F 89% 29.86 in 6.2 mi SSW 4.6 mph - N/A   Scattered Clouds
6:00 AM 78.8 °F - 77.0 °F 94% 29.89 in 6.2 mi SE 4.6 mph - N/A   Scattered Clouds
7:00 AM 80.6 °F 87.1 °F 77.0 °F 89% 29.92 in 6.2 mi SSE 4.6 mph - N/A   Scattered Clouds
8:00 AM 82.4 °F 90.9 °F 77.0 °F 84% 29.92 in 6.2 mi South 4.6 mph - N/A   Scattered Clouds
9:00 AM 86 °F - 78 °F 72% 29.94 in 25 mi SSW 6.9 mph - -   Scattered Clouds
9:00 AM 86.0 °F 99.3 °F 78.8 °F 79% 29.92 in 6.2 mi SSW 6.9 mph - N/A   Mostly Cloudy
10:00 AM 87.8 °F 102.5 °F 78.8 °F 75% 29.95 in 6.2 mi SW 6.9 mph - N/A   Scattered Clouds
11:00 AM 87.8 °F 102.5 °F 78.8 °F 75% 29.92 in 6.2 mi West 6.9 mph - N/A   Mostly Cloudy
12:00 PM 89.6 °F 102.2 °F 77.0 °F 66% 29.89 in 6.2 mi NNW 9.2 mph - N/A   Scattered Clouds
2:00 PM 89.6 °F 104.7 °F 78.8 °F 70% 29.86 in 6.2 mi NW 11.5 mph - N/A   Scattered Clouds
3:00 PM 90 °F - 79 °F 63% 29.83 in 25 mi WNW 11.5 mph - -   Scattered Clouds
3:00 PM 89.6 °F 104.7 °F 78.8 °F 70% 29.83 in 6.2 mi NW 11.5 mph - N/A   Scattered Clouds
4:00 PM 89.6 °F 104.7 °F 78.8 °F 70% 29.80 in 6.2 mi West 13.8 mph - N/A   Scattered Clouds
5:00 PM 87.8 °F 102.5 °F 78.8 °F 75% 29.80 in 6.2 mi West 13.8 mph - N/A   Scattered Clouds
6:00 PM 86.0 °F 99.3 °F 78.8 °F 79% 29.83 in 6.2 mi West 11.5 mph - N/A   Scattered Clouds
7:00 PM 84.2 °F 94.1 °F 77.0 °F 79% 29.86 in 6.2 mi West 6.9 mph - N/A   Scattered Clouds
8:00 PM 84.2 °F 94.1 °F 77.0 °F 79% 29.86 in 6.2 mi West 6.9 mph - N/A   Scattered Clouds
9:00 PM 83 °F - 78 °F 79% 29.88 in 19 mi West 6.9 mph - -   Scattered Clouds
9:00 PM 82.4 °F 90.9 °F 77.0 °F 84% 29.86 in 6.2 mi West 6.9 mph - N/A   Mostly Cloudy
10:00 PM 82.4 °F 90.9 °F 77.0 °F 84% 29.89 in 6.2 mi West 6.9 mph - N/A   Mostly Cloudy
11:00 PM 82.4 °F 90.9 °F 77.0 °F 84% 29.89 in 6.2 mi West 6.9 mph - N/A   Mostly Cloudy